Skip Page Navigation
NASA JPL Caltech
NASA Logo - Jet Propulsion Laboratory + View the NASA Portal
+ Near-Earth Object (NEO) Program
Search JPL
JPL Home Earth Solar System Stars & Galaxies Technology
JPL Solar System Dynamics
BODIES ORBITS EPHEMERIDES TOOLS PHYSICAL DATA DISCOVERY FAQ SITE MAP
JPL Small-Body Database Browser
Search: [ help ]  
(2001 WS1)
Classification: Apollo [NEO, PHA]          SPK-ID: 3092498
Ephemeris | Orbit Diagram | Orbital Elements | Physical Parameters | Close-Approach Data ]

[ hide orbit diagram ]
Orbit Diagram
Note: Make sure you have Java enabled on your browser to see the applet. This applet is provided as a 3D orbit visualization tool. The applet was implemented using 2-body methods, and hence should not be used for determining accurate long-term trajectories (over several years or decades) or planetary encounter circumstances. For accurate long-term ephemerides, please instead use our Horizons system.
Orbit Viewer

Additional Notes: the orbits shown in the applet are color coded. The planets are white lines, and the asteroid/comet is a blue line. The bright white line indicates the portion of the orbit that is above the ecliptic plane, and the darker portion is below the ecliptic plane. Likewise for the asteroid/comet orbit, the light blue indicates the portion above the ecliptic plane, and the dark blue the portion below the ecliptic plane.

Orbit Viewer applet originally written and kindly provided by Osamu Ajiki (AstroArts), and further modified by Ron Baalke (JPL).


Orbital Elements at Epoch 2456400.5 (2013-Apr-18.0) TDB
Reference: JPL 8 (heliocentric ecliptic J2000)
 Element Value Uncertainty (1-sigma)   Units 
e .6115627743415777 1.9805e-07  
a 2.60103530960697 2.1287e-07 AU
q 1.010338939503327 5.3342e-07 AU
i 13.23386081972257 2.8675e-05 deg
node 1.570994377669 0.00013572 deg
peri 4.463978384177243 0.00015217 deg
M 265.6595801428928 0.00012358 deg
tp 2456802.025473242442
(2014-May-24.52547324)
0.00057519 JED
period 1532.208257989742
4.19
0.0001881
5.15e-07
d
yr
n .2349550057068092 2.8844e-08 deg/d
Q 4.191731679710613 3.4306e-07 AU
  Orbit Determination Parameters
   # obs. used (total)      153  
   data-arc span      2835 days (7.76 yr)  
   first obs. used      1997-08-02  
   last obs. used      2005-05-07  
   planetary ephem.      DE405  
   SB-pert. ephem.      SB405-CPV-2  
   condition code      0  
   fit RMS      .5648  
   data source      ORB  
   producer      Otto Matic  
   solution date      2011-Sep-14 19:43:20  

Additional Information
 Earth MOID = .00855183 AU 
 T_jup = 3.090 
[ show covariance matrix ]

Ephemeris | Orbit Diagram | Orbital Elements | Physical Parameters | Close-Approach Data ]

Physical Parameter Table
Parameter Symbol Value Units Sigma Reference Notes
absolute magnitude H 16.843 mag .96188 8 autocmod 2.5a

[ show close-approach data ]
Ephemeris | Orbit Diagram | Orbital Elements | Physical Parameters | Close-Approach Data ]
ABOUT SSD CREDITS/AWARDS PRIVACY/COPYRIGHT GLOSSARY LINKS
FirstGov 2013-May-25 12:55 UT
(server date/time)  
NASA Home Page
Site Manager:   Donald K. Yeomans
Webmaster  Alan B. Chamberlin